カタログに戻る

VIASAT 3-F1

運用中通信GEO
NORAD 56370·PAYLOAD·🇺🇸 United States

打ち上げ May 1, 2023 から Cape Canaveral Space Force Station

Loading…

TLE

最新Source: Space-Track

元期: Sep 14, 2026, 13:22 UTC

1 56370U 23060A   26257.55755082  .00000000  00000-0  00000-0 0  9991
2 56370   0.0201 187.8623 0000651 345.8109 291.6182  1.00269693 12337

AllMySatでVIASAT 3-F1をリアルタイム追跡

Download on the App Store